KD4WLE Weather Reports


Display with metric or nautical units.
time (UTC)temp
F
wind
direction
speed
MPH
gust
MPH
rain 1hr
in
rain 24hr
in
rain mn
in
humidity
%
barometer
mb
20260510230311 77 275 3.0 6.0 0.00 0.11 0.11 94 1016.4
20260510225809 77 296 2.0 3.0 0.00 0.11 0.11 93 1016.2
20260510225306 77 287 1.0 2.0 0.00 0.11 0.11 94 1015.9
20260510224800 77 289 3.0 4.0 0.00 0.11 0.11 94 1016.1
20260510224256 77 302 3.0 4.0 0.00 0.11 0.11 96 1016.0
20260510223754 77 273 4.0 4.0 0.00 0.11 0.11 96 1015.8
20260510223251 77 273 1.0 1.0 0.00 0.11 0.11 95 1016.3
20260510222749 77 303 1.0 1.0 0.00 0.11 0.11 95 1016.4
20260510222246 76 302 3.0 3.0 0.00 0.11 0.11 94 1016.3
20260510221740 75 285 4.0 6.0 0.00 0.11 0.11 94 1016.3
20260510221238 75 295 4.0 4.0 0.00 0.11 0.11 96 1016.1
20260510220734 75 295 4.0 4.0 0.00 0.11 0.11 97 1016.0
20260510220230 75 238 0.0 0.0 0.00 0.11 0.11 98 1015.7
20260510215727 74 228 1.0 1.0 0.00 0.11 0.11 97 1015.7
20260510215224 74 265 4.0 4.0 0.00 0.11 0.11 97 1015.8
20260510214721 75 246 8.0 10.0 0.00 0.11 0.11 98 1016.2
20260510214218 75 250 4.0 6.0 0.17 0.11 0.11 98 1016.0
20260510213715 75 263 2.0 4.0 0.66 0.11 0.11 98 1016.3
20260510213212 77 244 3.0 3.0 0.50 0.08 0.08 95 1016.2
20260510212708 80 199 2.0 2.0 0.00 0.00 0.00 87 1016.1
20260510212206 81 156 3.0 3.0 0.00 0.00 0.00 88 1016.0
20260510211702 82 244 2.0 3.0 0.00 0.00 0.00 89 1015.7
20260510211156 82 270 5.0 8.0 0.00 0.00 0.00 88 1015.8
20260510210654 84 305 4.0 6.0 0.00 0.00 0.00 86 1015.5
20260510210149 85 310 4.0 8.0 0.00 0.00 0.00 82 1015.6
20260510205648 85 272 4.0 7.0 0.00 0.00 0.00 81 1015.5
20260510205144 85 267 5.0 7.0 0.00 0.00 0.00 80 1015.0
20260510204640 86 318 4.0 6.0 0.00 0.00 0.00 78 1015.2
20260510204137 87 244 5.0 6.0 0.00 0.00 0.00 73 1015.2
20260510203634 87 279 3.0 4.0 0.00 0.00 0.00 70 1015.3
20260510203131 88 269 1.0 2.0 0.00 0.00 0.00 70 1015.2
20260510202631 90 314 4.0 4.0 0.00 0.00 0.00 68 1015.2
20260510202126 92 299 0.0 1.0 0.00 0.00 0.00 62 1015.0
20260510201624 94 302 0.0 1.0 0.00 0.00 0.00 52 1014.9
20260510201120 94 203 1.0 1.0 0.00 0.00 0.00 51 1015.0
20260510200616 95 132 1.0 2.0 0.00 0.00 0.00 50 1014.8
20260510200115 94 164 2.0 2.0 0.00 0.00 0.00 51 1014.7
20260510195612 93 165 2.0 2.0 0.00 0.00 0.00 51 1014.7
20260510195108 94 38 1.0 2.0 0.00 0.00 0.00 51 1014.7
20260510194602 94 129 4.0 6.0 0.00 0.00 0.00 51 1014.9
20260510194059 95 210 1.0 1.0 0.00 0.00 0.00 49 1014.7
20260510193553 94 0 1.0 2.0 0.00 0.00 0.00 49 1014.8
20260510193049 95 285 2.0 3.0 0.00 0.00 0.00 49 1014.7
20260510192549 94 51 0.0 0.0 0.00 0.00 0.00 50 1014.9
20260510192046 95 97 1.0 1.0 0.00 0.00 0.00 49 1015.0
20260510191542 96 248 1.0 2.0 0.00 0.00 0.00 46 1014.8
20260510191039 97 222 1.0 1.0 0.00 0.00 0.00 46 1015.1
20260510190536 96 305 0.0 0.0 0.00 0.00 0.00 46 1015.0
20260510190034 97 314 0.0 1.0 0.00 0.00 0.00 48 1015.2
20260510185530 95 302 2.0 2.0 0.00 0.00 0.00 48 1015.5
20260510185028 93 127 2.0 2.0 0.00 0.00 0.00 52 1015.4
20260510184525 94 209 2.0 3.0 0.00 0.00 0.00 49 1015.4
20260510184020 96 291 0.0 1.0 0.00 0.00 0.00 49 1015.6
20260510183516 95 120 1.0 2.0 0.00 0.00 0.00 50 1015.5
20260510183011 93 143 1.0 2.0 0.00 0.00 0.00 52 1015.8
20260510182509 93 197 2.0 3.0 0.00 0.00 0.00 52 1015.5
20260510182003 93 98 2.0 2.0 0.00 0.00 0.00 54 1015.7
20260510181502 94 215 2.0 2.0 0.00 0.00 0.00 53 1015.6
20260510180956 94 125 2.0 2.0 0.00 0.00 0.00 52 1015.7
20260510180454 93 198 2.0 3.0 0.00 0.00 0.00 52 1015.8
20260510175951 96 140 1.0 3.0 0.00 0.00 0.00 50 1015.7
20260510175447 96 328 2.0 2.0 0.00 0.00 0.00 50 1016.0
20260510174943 93 48 2.0 3.0 0.00 0.00 0.00 54 1015.9
20260510174441 94 254 1.0 1.0 0.00 0.00 0.00 53 1015.8
20260510173938 94 115 5.0 6.0 0.00 0.00 0.00 51 1016.2
20260510173433 93 242 1.0 1.0 0.00 0.00 0.00 52 1016.0
20260510172930 93 186 3.0 4.0 0.00 0.00 0.00 55 1016.0
20260510172426 94 73 1.0 2.0 0.00 0.00 0.00 53 1016.2
20260510171922 93 20 2.0 2.0 0.00 0.00 0.00 53 1016.3
20260510171419 93 80 1.0 2.0 0.00 0.00 0.00 54 1016.4
20260510170916 93 106 4.0 9.0 0.00 0.00 0.00 53 1016.4
20260510170413 92 330 1.0 1.0 0.00 0.00 0.00 56 1016.5
20260510165908 94 199 3.0 4.0 0.00 0.00 0.00 53 1016.6
20260510165404 95 41 2.0 4.0 0.00 0.00 0.00 52 1016.7
20260510164902 94 235 1.0 1.0 0.00 0.00 0.00 53 1016.6
20260510164359 92 168 2.0 3.0 0.00 0.00 0.00 55 1016.7
20260510163859 92 125 3.0 4.0 0.00 0.00 0.00 57 1016.9
20260510163355 91 56 2.0 2.0 0.00 0.00 0.00 59 1016.7
20260510162849 91 260 1.0 2.0 0.00 0.00 0.00 58 1016.8
20260510162347 90 46 2.0 2.0 0.00 0.00 0.00 60 1017.1
20260510161842 93 157 2.0 3.0 0.00 0.00 0.00 60 1016.9
20260510161339 92 160 4.0 6.0 0.00 0.00 0.00 59 1017.0
20260510160836 91 178 1.0 1.0 0.00 0.00 0.00 61 1016.8
20260510160332 91 33 1.0 2.0 0.00 0.00 0.00 62 1017.0
20260510155826 89 331 3.0 3.0 0.00 0.00 0.00 63 1017.0
20260510155324 89 32 1.0 2.0 0.00 0.00 0.00 64 1017.2
20260510154820 90 18 0.0 1.0 0.00 0.00 0.00 66 1017.0
20260510154315 91 161 4.0 4.0 0.00 0.00 0.00 65 1016.9
20260510153810 90 341 0.0 1.0 0.00 0.00 0.00 68 1017.1
20260510153306 89 345 0.0 1.0 0.00 0.00 0.00 70 1017.0
20260510152803 88 1 2.0 3.0 0.00 0.00 0.00 71 1017.1
20260510152300 87 327 1.0 2.0 0.00 0.00 0.00 73 1017.0
20260510151756 87 176 1.0 1.0 0.00 0.00 0.00 73 1017.1
20260510151255 86 155 1.0 1.0 0.00 0.00 0.00 77 1017.0
20260510150750 86 148 2.0 3.0 0.00 0.00 0.00 78 1017.1
20260510150246 85 211 2.0 3.0 0.00 0.00 0.00 78 1017.0
20260510145742 86 283 1.0 2.0 0.00 0.00 0.00 76 1016.9
20260510145239 85 166 1.0 2.0 0.00 0.00 0.00 77 1016.8
20260510144734 85 259 0.0 1.0 0.00 0.00 0.00 79 1016.8
20260510144232 86 278 0.0 0.0 0.00 0.00 0.00 78 1016.8
20260510143726 86 343 0.0 0.0 0.00 0.00 0.00 78 1016.9
20260510143223 84 167 1.0 1.0 0.00 0.00 0.00 80 1016.9
20260510142719 84 170 3.0 3.0 0.00 0.00 0.00 81 1016.9
20260510142216 84 211 1.0 1.0 0.00 0.00 0.00 80 1016.9
20260510141713 85 10 1.0 2.0 0.00 0.00 0.00 79 1016.5
20260510141212 85 85 2.0 3.0 0.00 0.00 0.00 80 1016.5
20260510140708 86 225 1.0 1.0 0.00 0.00 0.00 80 1016.4
20260510140207 84 275 2.0 2.0 0.00 0.00 0.00 83 1016.4
20260510135702 84 107 1.0 2.0 0.00 0.00 0.00 83 1016.3
20260510135158 84 138 2.0 2.0 0.00 0.00 0.00 82 1016.5
20260510134656 84 286 0.0 1.0 0.00 0.00 0.00 83 1016.3
20260510134153 83 180 1.0 1.0 0.00 0.00 0.00 85 1016.4
20260510133649 83 76 1.0 2.0 0.00 0.00 0.00 86 1016.6
20260510133144 82 307 0.0 0.0 0.00 0.00 0.00 87 1016.3
20260510132641 82 112 0.0 0.0 0.00 0.00 0.00 88 1016.2
20260510132139 82 185 2.0 2.0 0.00 0.00 0.00 88 1016.2
20260510131636 81 50 0.0 1.0 0.00 0.00 0.00 89 1016.4
20260510131133 82 162 1.0 2.0 0.00 0.00 0.00 88 1016.3
20260510130630 82 354 1.0 1.0 0.00 0.00 0.00 88 1016.3
20260510130127 82 136 3.0 4.0 0.00 0.00 0.00 87 1016.0
20260510125623 82 208 0.0 0.0 0.00 0.00 0.00 89 1016.1
20260510125120 81 266 0.0 0.0 0.00 0.00 0.00 91 1016.1
20260510124617 80 298 1.0 1.0 0.00 0.00 0.00 93 1015.9
20260510124114 79 236 0.0 1.0 0.00 0.00 0.00 95 1016.0
20260510123609 78 241 0.0 1.0 0.00 0.00 0.00 96 1015.9
20260510123105 77 284 0.0 0.0 0.00 0.00 0.00 98 1016.0
20260510122601 76 287 0.0 0.0 0.00 0.00 0.00 99 1016.2
20260510122057 76 288 0.0 0.0 0.00 0.00 0.00 99 1016.0
20260510121554 75 246 0.0 1.0 0.00 0.00 0.00 99 1016.0
20260510121051 75 265 0.0 0.0 0.00 0.00 0.00 99 1015.9
20260510120549 75 307 0.0 0.0 0.00 0.00 0.00 99 1015.7
20260510120044 75 284 0.0 0.0 0.00 0.00 0.00 99 1015.9
20260510115541 75 271 0.0 0.0 0.00 0.00 0.00 99 1015.9
20260510115039 74 259 0.0 0.0 0.00 0.00 0.00 99 1015.6
20260510114534 74 286 0.0 0.0 0.00 0.00 0.00 99 1015.7
20260510114031 74 237 0.0 0.0 0.00 0.00 0.00 99 1015.5
20260510113526 74 195 1.0 1.0 0.00 0.00 0.00 99 1015.6
20260510113024 73 140 1.0 1.0 0.00 0.00 0.00 99 1015.4
20260510112520 73 147 0.0 1.0 0.00 0.00 0.00 99 1015.4
20260510112016 73 127 2.0 3.0 0.00 0.00 0.00 99 1015.5
20260510111514 73 145 2.0 2.0 0.00 0.00 0.00 99 1015.4
20260510111009 73 226 0.0 0.0 0.00 0.00 0.00 99 1015.0
20260510110505 73 171 1.0 1.0 0.00 0.00 0.00 99 1014.8
20260510110002 73 229 0.0 0.0 0.00 0.00 0.00 99 1014.7
20260510105457 73 229 0.0 0.0 0.00 0.00 0.00 99 1014.6
20260510104952 73 145 1.0 1.0 0.00 0.00 0.00 99 1014.5
20260510104449 73 141 0.0 0.0 0.00 0.00 0.00 99 1014.7
20260510103945 72 175 0.0 0.0 0.00 0.00 0.00 99 1014.6
20260510103443 73 203 0.0 0.0 0.00 0.00 0.00 99 1014.7
20260510102938 73 204 0.0 0.0 0.00 0.00 0.00 99 1014.3
20260510102434 73 212 0.0 0.0 0.00 0.00 0.00 99 1014.2
20260510101931 73 212 0.0 0.0 0.00 0.00 0.00 99 1014.4
20260510101429 73 212 0.0 0.0 0.00 0.00 0.00 99 1014.0
20260510100927 73 213 0.0 0.0 0.00 0.00 0.00 99 1014.0
20260510100423 73 225 0.0 0.0 0.00 0.00 0.00 99 1014.0
20260510095919 73 226 0.0 0.0 0.00 0.00 0.00 99 1014.0
20260510095415 73 226 0.0 0.0 0.00 0.00 0.00 99 1014.1
20260510094914 73 226 0.0 0.0 0.00 0.00 0.00 99 1014.0
20260510094409 73 131 2.0 2.0 0.00 0.00 0.00 99 1014.1
20260510093905 73 155 0.0 0.0 0.00 0.00 0.00 99 1013.9
20260510093401 73 209 0.0 0.0 0.00 0.00 0.00 99 1013.9
20260510092858 73 209 0.0 0.0 0.00 0.00 0.00 99 1014.1
20260510092354 73 209 0.0 0.0 0.00 0.00 0.00 99 1013.9
20260510091849 73 224 0.0 0.0 0.00 0.00 0.00 99 1014.1
20260510091347 73 234 0.0 0.0 0.00 0.00 0.00 99 1014.0
20260510090843 73 282 0.0 0.0 0.00 0.00 0.00 99 1014.0
20260510090340 73 282 0.0 0.0 0.00 0.00 0.00 99 1014.0
20260510085836 73 282 0.0 0.0 0.00 0.00 0.00 99 1013.8
20260510085330 73 282 0.0 0.0 0.00 0.00 0.00 99 1013.8
20260510084826 73 282 0.0 0.0 0.00 0.00 0.00 99 1013.8
20260510084323 73 282 0.0 0.0 0.00 0.00 0.00 99 1013.6
20260510083820 73 283 0.0 0.0 0.00 0.00 0.00 99 1013.5
20260510083317 74 284 0.0 0.0 0.00 0.00 0.00 99 1013.6
20260510082812 74 247 0.0 0.0 0.00 0.00 0.00 99 1013.6
20260510082310 74 179 0.0 0.0 0.00 0.00 0.00 99 1013.9
20260510081809 74 152 0.0 0.0 0.00 0.00 0.00 99 1013.9
20260510081305 74 174 1.0 1.0 0.00 0.00 0.00 99 1013.9
20260510080801 74 180 0.0 0.0 0.00 0.00 0.00 99 1013.7
20260510080255 74 159 0.0 2.0 0.00 0.00 0.00 99 1013.9
20260510075753 74 216 0.0 0.0 0.00 0.00 0.00 99 1014.0
20260510075250 74 216 0.0 0.0 0.00 0.00 0.00 99 1014.0
20260510074747 75 235 0.0 0.0 0.00 0.00 0.00 99 1013.7
20260510074244 75 293 0.0 0.0 0.00 0.00 0.00 99 1013.9
20260510073740 75 293 0.0 0.0 0.00 0.00 0.00 99 1013.9
20260510073236 75 293 0.0 0.0 0.00 0.00 0.00 99 1013.8
20260510072731 75 294 0.0 0.0 0.00 0.00 0.00 99 1014.1
20260510072228 75 293 0.0 0.0 0.00 0.00 0.00 99 1014.1
20260510071725 75 293 0.0 0.0 0.00 0.00 0.00 99 1013.9
20260510071222 75 293 0.0 0.0 0.00 0.00 0.00 99 1013.8
20260510070720 75 294 0.0 0.0 0.00 0.00 0.00 99 1013.7
20260510070217 75 294 0.0 0.0 0.00 0.00 0.00 99 1013.9
20260510065712 75 295 0.0 0.0 0.00 0.00 0.00 98 1013.8
20260510065208 75 292 0.0 0.0 0.00 0.00 0.00 98 1013.9
20260510064705 75 291 0.0 0.0 0.00 0.00 0.00 98 1013.9
20260510064203 75 291 0.0 0.0 0.00 0.00 0.00 98 1014.0
20260510063659 75 291 0.0 0.0 0.00 0.00 0.00 98 1014.0
20260510063155 75 291 0.0 0.0 0.00 0.00 0.00 98 1014.1
20260510062652 76 290 0.0 0.0 0.00 0.00 0.00 97 1014.1
20260510062148 76 291 0.0 0.0 0.00 0.00 0.00 97 1014.0
20260510061643 75 280 0.0 1.0 0.00 0.00 0.00 98 1014.0
20260510061141 75 274 0.0 0.0 0.00 0.00 0.00 98 1014.5
20260510060637 75 271 0.0 0.0 0.00 0.00 0.00 98 1014.4
20260510060134 75 271 0.0 0.0 0.00 0.00 0.00 98 1014.5
20260510055630 75 273 0.0 0.0 0.00 0.00 0.00 97 1014.6
20260510055128 75 273 0.0 0.0 0.00 0.00 0.00 97 1014.8
20260510054624 75 272 0.0 0.0 0.00 0.00 0.00 98 1014.6
20260510054119 75 278 0.0 0.0 0.00 0.00 0.00 98 1014.8
20260510053618 75 281 0.0 0.0 0.00 0.00 0.00 97 1015.0
20260510053115 75 283 0.0 0.0 0.00 0.00 0.00 97 1015.0
20260510052611 75 270 0.0 0.0 0.00 0.00 0.00 97 1015.0
20260510052108 75 271 0.0 0.0 0.00 0.00 0.00 97 1015.0
20260510051603 76 269 0.0 0.0 0.00 0.00 0.00 97 1015.1
20260510051101 76 270 0.0 0.0 0.00 0.00 0.00 97 1015.2
20260510050558 76 299 0.0 0.0 0.00 0.00 0.00 97 1015.0
20260510050055 76 270 0.0 0.0 0.00 0.00 0.00 97 1015.0
20260510045552 76 273 0.0 0.0 0.00 0.00 0.00 97 1015.3
20260510045047 76 304 0.0 0.0 0.00 0.00 0.00 97 1015.1
20260510044544 76 279 0.0 0.0 0.00 0.00 0.00 97 1015.0
20260510044042 76 293 1.0 1.0 0.00 0.00 0.00 97 1015.2
20260510043537 76 285 0.0 0.0 0.00 0.00 0.00 97 1015.2
20260510043033 76 269 0.0 0.0 0.00 0.00 0.00 97 1015.4
20260510042527 76 273 0.0 0.0 0.00 0.00 0.00 96 1015.3
20260510042022 76 268 0.0 0.0 0.00 0.00 0.00 96 1015.4
20260510041520 76 284 0.0 0.0 0.00 0.00 0.00 96 1014.9
20260510041017 76 248 2.0 3.0 0.00 0.00 0.00 96 1015.0
20260510040513 76 243 1.0 2.0 0.00 0.00 0.00 95 1015.1
20260510040009 76 287 0.0 1.0 0.00 0.01 0.01 95 1015.2
20260510035506 76 352 2.0 2.0 0.00 0.01 0.01 95 1015.5
20260510035005 77 274 1.0 1.0 0.00 0.01 0.01 95 1015.2
20260510034504 77 291 2.0 3.0 0.00 0.01 0.01 95 1015.2
20260510034000 77 275 2.0 2.0 0.00 0.01 0.01 95 1015.3
20260510033456 77 280 2.0 2.0 0.00 0.01 0.01 95 1015.4
20260510032954 77 264 0.0 0.0 0.00 0.01 0.01 95 1015.3
20260510032450 76 276 2.0 4.0 0.00 0.01 0.01 95 1015.3
20260510031945 76 225 1.0 2.0 0.00 0.01 0.01 96 1015.4
20260510031441 77 269 0.0 0.0 0.00 0.01 0.01 96 1015.3
20260510030937 76 298 2.0 2.0 0.00 0.01 0.01 95 1015.5
20260510030432 76 264 1.0 2.0 0.00 0.01 0.01 95 1015.6
20260510025930 76 268 2.0 2.0 0.00 0.01 0.01 95 1015.1
20260510025427 77 284 1.0 1.0 0.00 0.01 0.01 95 1015.1
20260510024925 77 278 0.0 0.0 0.00 0.01 0.01 95 1015.4
20260510024421 77 282 2.0 3.0 0.00 0.01 0.01 95 1015.4
20260510023917 77 282 1.0 2.0 0.00 0.01 0.01 95 1015.2
20260510023413 77 281 2.0 3.0 0.00 0.01 0.01 95 1015.2
20260510022911 77 288 2.0 3.0 0.00 0.01 0.01 95 1014.8
20260510022410 77 279 2.0 2.0 0.00 0.01 0.01 95 1014.9
20260510021909 77 243 3.0 4.0 0.00 0.01 0.01 95 1014.8
20260510021407 77 309 3.0 3.0 0.00 0.01 0.01 95 1014.8
20260510020903 77 298 4.0 6.0 0.00 0.01 0.01 94 1014.8
20260510020358 77 280 2.0 3.0 0.00 0.01 0.01 94 1014.8
20260510015854 77 264 2.0 3.0 0.00 0.01 0.01 94 1014.8
20260510015350 77 275 4.0 4.0 0.00 0.01 0.01 94 1014.7
20260510014845 77 303 2.0 3.0 0.00 0.01 0.01 94 1015.0
20260510014343 77 279 6.0 8.0 0.00 0.01 0.01 94 1014.8
20260510013839 77 310 1.0 2.0 0.00 0.01 0.01 94 1014.9
20260510013335 77 282 4.0 6.0 0.00 0.01 0.01 94 1014.6
20260510012830 77 279 5.0 6.0 0.00 0.01 0.01 94 1014.9
20260510012330 77 254 2.0 3.0 0.00 0.01 0.01 94 1014.7
20260510011825 77 257 4.0 6.0 0.00 0.01 0.01 94 1014.6
20260510011320 77 269 4.0 6.0 0.00 0.01 0.01 94 1014.6
20260510010817 77 244 4.0 4.0 0.00 0.01 0.01 93 1014.6
20260510010315 77 255 4.0 6.0 0.00 0.01 0.01 92 1014.6
20260510005811 77 283 5.0 6.0 0.00 0.01 0.01 91 1014.6
20260510005307 77 260 3.0 3.0 0.00 0.01 0.01 91 1014.3
20260510004805 77 274 5.0 8.0 0.00 0.01 0.01 91 1014.2
20260510004302 77 282 6.0 8.0 0.00 0.01 0.01 91 1014.1
20260510003759 77 264 4.0 6.0 0.00 0.01 0.01 92 1014.0
20260510003257 77 224 3.0 6.0 0.00 0.01 0.01 93 1013.9
20260510002755 77 300 4.0 4.0 0.00 0.01 0.01 93 1013.5
20260510002253 76 239 3.0 6.0 0.00 0.01 0.01 93 1013.7
20260510001749 76 273 5.0 7.0 0.00 0.01 0.01 93 1013.7
20260510001248 76 263 7.0 10.0 0.00 0.01 0.01 93 1013.5
20260510000743 75 264 4.0 6.0 0.00 0.01 0.01 93 1013.3
20260510000241 75 244 4.0 4.0 0.00 0.01 0.01 95 1013.4
20260509235737 76 247 5.0 7.0 0.00 0.01 0.01 96 1013.2
20260509235234 76 249 9.0 10.0 0.00 0.01 0.01 96 1013.1
20260509234729 77 238 5.0 8.0 0.00 0.01 0.01 95 1013.2
20260509234227 77 256 3.0 6.0 0.00 0.01 0.01 93 1013.1
20260509233725 78 254 4.0 8.0 0.00 0.01 0.01 93 1012.7
20260509233223 78 262 2.0 3.0 0.00 0.01 0.01 92 1012.8
20260509232718 78 249 2.0 3.0 0.00 0.01 0.01 92 1012.9
20260509232216 78 280 5.0 7.0 0.00 0.01 0.01 93 1012.8
20260509231712 78 291 2.0 3.0 0.00 0.01 0.01 93 1012.9
20260509231209 78 273 2.0 3.0 0.00 0.01 0.01 94 1013.2